Sisseton, SD

10:10 PM CST on February 21, 2018 (GMT -0600)
Sisseton

Weather History for K8D3 - September, 2012

Change the Weather History Date:

Thursday, September 13, 2012

  Actual Average Record
Temperature  
Mean Temperature 58 °F 61 °F  
Max Temperature 77 °F 74 °F 94 °F (1952)
Min Temperature 38 °F 48 °F 34 °F (2014)
Degree Days  
Heating Degree Days 7 6  
Month to date heating degree days 32 54  
Since 1 July heating degree days 68 97  
Cooling Degree Days 0 2  
Month to date cooling degree days 43 32  
Year to date cooling degree days 705 511  
Growing Degree Days 7 (Base 50)    
Moisture  
Dew Point 28 °F    
Average Humidity 42    
Maximum Humidity 70    
Minimum Humidity 13    
Precipitation  
Precipitation 0.00 in 0.09 in 0.54 in (1954)
Month to date precipitation 0.03 1.00  
Year to date precipitation 14.30 17.74  
Sea Level Pressure  
Sea Level Pressure 30.26 in    
Wind  
Wind Speed 5 mph (WNW)    
Max Wind Speed 16 mph    
Max Gust Speed 28 mph    
T = Trace of Precipitation, MM = Missing Value Source: NWS Daily Summary

Daily Weather History Graph

Daily Weather History Graph

Search for Another Location

Airport or City:

Trip Planner

Search our weather history database for the weather conditions in past years. The results will help you decide how hot, cold, wet, or windy it might be!

Date:

Astronomy

Sep. 13, 2012 Rise Set
Actual Time 7:04 AM CDT 7:41 PM CDT
Civil Twilight 6:34 AM CDT 8:11 PM CDT
Nautical Twilight 5:58 AM CDT 8:47 PM CDT
Astronomical Twilight 5:22 AM CDT 9:24 PM CDT
Moon 4:19 AM CDT (9/13) 6:09 PM CDT (9/13)
Length of Visible Light 13h 37m
Length of Day
12h 37m
Waning Crescent, 7% of the Moon is Illuminated
Sep 13
Waning Crescent
Sep 15
New
Sep 22
First Quarter
Sep 29
Full
Oct 8
Last Quarter

Hourly Weather History & Observations

Time (CDT) Temp. Windchill Dew Point Humidity Pressure Visibility Wind Dir Wind Speed Gust Speed Precip Events Conditions
12:56 AM 48.0 °F - 27.0 °F 44% 30.25 in - NW 3.5 mph - N/A   Unknown
1:56 AM 46.0 °F - 28.9 °F 51% 30.25 in - Calm Calm - N/A   Unknown
2:56 AM 44.1 °F - 30.0 °F 58% 30.27 in - Calm Calm - N/A   Unknown
3:56 AM 41.0 °F 38.0 °F 28.0 °F 60% 30.28 in - WSW 4.6 mph - N/A   Unknown
4:56 AM 39.9 °F 37.8 °F 30.0 °F 68% 30.29 in - West 3.5 mph - N/A   Unknown
5:56 AM 46.9 °F - 30.0 °F 52% 30.29 in - West 8.1 mph - N/A   Unknown
6:56 AM 42.1 °F - 33.1 °F 70% 30.31 in - Calm Calm - N/A   Unknown
7:56 AM 44.1 °F - 34.0 °F 68% 30.32 in - Calm Calm - N/A   Unknown
8:56 AM 60.1 °F - 39.9 °F 47% 30.30 in - WNW 3.5 mph - N/A   Unknown
9:56 AM 68.0 °F - 24.1 °F 19% 30.30 in - West 8.1 mph - N/A   Unknown
10:56 AM 70.0 °F - 19.9 °F 15% 30.30 in - NNW 6.9 mph 16.1 mph N/A   Unknown
11:56 AM 72.0 °F - 21.9 °F 15% 30.30 in - West 8.1 mph 17.3 mph N/A   Unknown
12:56 PM 73.0 °F - 23.0 °F 15% 30.28 in - WNW 12.7 mph 19.6 mph N/A   Unknown
1:56 PM 75.0 °F - 21.9 °F 14% 30.26 in - West 12.7 mph 27.6 mph N/A   Unknown
2:56 PM 75.0 °F - 21.9 °F 14% 30.25 in - WNW 10.4 mph - N/A   Unknown
3:56 PM 75.9 °F - 21.0 °F 13% 30.23 in - NNW 6.9 mph - N/A   Unknown
4:56 PM 75.9 °F - 23.0 °F 14% 30.22 in - WNW 11.5 mph - N/A   Unknown
5:56 PM 73.0 °F - 24.1 °F 16% 30.21 in - West 5.8 mph - N/A   Unknown
6:56 PM 73.0 °F - 26.1 °F 17% 30.21 in - North 4.6 mph - N/A   Unknown
7:56 PM 66.0 °F - 28.0 °F 24% 30.22 in - Calm Calm - N/A   Unknown
8:56 PM 59.0 °F - 36.0 °F 42% 30.22 in - North 3.5 mph - N/A   Unknown
10:56 PM 59.0 °F - 37.0 °F 44% 30.24 in - Calm Calm - N/A   Unknown
11:56 PM 55.9 °F - 35.1 °F 45% 30.25 in - NE 3.5 mph - N/A   Unknown